Location: Hawks Ness
(60.2333°N, 1.1667°W)
Time: 00:38:27
(UTC+00:00)

Cosmos 540 Rocket - Pass Details

Date: 22 October 2019
Orbit: 740 x 754 km, 74.1° (Epoch: 13 November)

Event Time Altitude Azimuth Distance (km) Brightness Sun altitude
Exits shadow 04:35:57 - 326° (NNW) 3,001 6.3 -18.5°
Reaches altitude 10° 04:37:48 10° 330° (NNW) 2,292 5.8 -18.3°
Maximum altitude 04:42:58 62° 51° (NE) 848 3.9 -17.7°
Drops below altitude 10° 04:48:04 10° 133° (SE) 2,273 6.5 -17.1°
Sets 04:50:27 0° 136° (SE) 3,192 7.2 -16.8°
